Regional Weather Roundup
Issued by NWS

Home | Current Version | Previous Version | Text Only | Print | Product List | Glossary On
Versions: 1 2 3 4 5 6 7 8 9 10 11 12 13 14 15 16 17 18 19 20 21 22 23 24 25 26 27 28 29 30 31 32 33 34 35 36 37 38 39 40 41 42 43 44 45 46 47 48 49 50
000
ASHW40 PHFO 271243
RWRHI

WEATHER ROUNDUP FOR HAWAII
NATIONAL WEATHER SERVICE HONOLULU HI
200 AM HST TUE JAN 27 2015

THIS IS AN AUTOMATED REPORT THAT HAS NOT BEEN QUALITY CONTROLLED.

NOTE..."FAIR" INDICATES FEW OR NO CLOUDS BELOW 12,000 FEET WITH NO
SIGNIFICANT WEATHER AND/OR OBSTRUCTIONS TO VISIBILITY.

* - THESE SITES REPORT LIMITED FIELDS

HIZ001>004-271300-
KAUAI-NIIHAU-

CITY           SKY/WX    TMP DP  RH WIND       PRES   REMARKS
LIHUE APT      MOCLDY    72  61  68 NE9       29.99F
PORT ALLEN*      N/A     64 N/A N/A NE7         N/A
POIPU*           N/A     64 N/A N/A VRB5        N/A
PRINCEVILLE*     N/A     64 N/A N/A MISG        N/A
KOKOLE POINT*    N/A     64 N/A N/A MISG        N/A
MOLOAA DAIRY*  NOT AVBL
WAIMEA HTS*      N/A     66  50  55 N5          N/A
PUU OPAE*        N/A     59  50  72 CALM        N/A
PUU LUA*       NOT AVBL
MAKAHA RIDGE*  NOT AVBL
$$

HIZ005>011-271300-
OAHU-

CITY           SKY/WX    TMP DP  RH WIND       PRES   REMARKS
HONOLULU       PTCLDY    67  60  78 CALM      29.96F
KALAELOA       CLEAR     61  57  87 CALM      29.98F
KANEOHE MCB    CLOUDY    73  60  63 VRB5      29.97F
WHEELER FIELD  FAIR      58  56  91 NW3       29.98F
BELLOWS*         N/A    N/A N/A N/A NE14        N/A
KAHUKU*          N/A    N/A N/A N/A E7G13       N/A
WHEELER*       NOT AVBL
WAIANAE HARBOR NOT AVBL
DILLINGHAM*      N/A     61  57  88 MISG        N/A
KAHUKU TRN*      N/A     66  59  77 E6G14       N/A
KAWAILOA*        N/A     64  57  77 E7          N/A
KII*             N/A    N/A N/A N/A E12G17      N/A
MAKUA RANGE*     N/A     63  57  82 SE7         N/A
OAHU FOREST NW   N/A    N/A N/A N/A CALM        N/A
SCHOFIELD BRK*   N/A     73  72  94 MISG        N/A
SCHOFIELD S*   NOT AVBL
WAIANAE VLY*     N/A     66  57  72 NE6G14      N/A
KUAOKALA*        N/A     66  55  68 CALM        N/A
HONOULIUULI*   NOT AVBL
MOKUOLOE IS*     N/A    N/A N/A N/A MISG        N/A
PALEHUA*         N/A     73  59  60 CALM        N/A
WAIAWA PHB*    NOT AVBL
$$

HIZ012>013-271300-
MOLOKAI-

CITY           SKY/WX    TMP DP  RH WIND       PRES   REMARKS
MOLOKAI AIRPT  CLEAR     68  59  73 NE7       29.96F
KALAUPAPA      NOT AVBL
MAKAPULAPAI*     N/A     72  61  68 E14G22      N/A
MOLOKAI 1*       N/A     55  54  94 NE2         N/A
PUU ALII*        N/A     52  52 100 SE2G9       N/A
$$

HIZ016-271300-
KAHOOLAWE-

CITY           SKY/WX    TMP DP  RH WIND       PRES   REMARKS
KAHOOLAWE*       N/A     63 N/A N/A NE8         N/A
HAKIOAWA*        N/A     64  60  87 MISG      30.38S
HONOKANAIA*      N/A     68  58  71 N5G12     29.97F
KANELOA*         N/A     72  61  68 MISG      29.18
KEALIALALO*    NOT AVBL
LUA MAKIKA*    NOT AVBL
$$

HIZ014>015-271300-
LANAI-

CITY           SKY/WX    TMP DP  RH WIND       PRES   REMARKS
LANAI CITY     MOCLDY    61  60  96 E5        30.01S
LANAI 1*         N/A     64  64 100 E10G16      N/A
$$

HIZ017>028-271300-
MAUI-

CITY           SKY/WX    TMP DP  RH WIND       PRES   REMARKS
KAHULUI        CLEAR     64  58  80 CALM      29.96F
KAPALUA-W MAUI NOT AVBL
HANA AIRPORT   CLOUDY    64  63  94 CALM      29.99F
HANA*            N/A     66 N/A N/A S5          N/A
HALEAKALA SUMM   N/A     48  10  21 E21G35      N/A
MAALAEA BAY*   NOT AVBL
HALEAKALA*     NOT AVBL
KAUPO GAP*       N/A     70  63  78 E1G8        N/A
KULA 1*          N/A     54   6  14 E3          N/A
$$

HIZ023>026-271300-
BIG ISLAND OF HAWAII COAST AND LOWER SLOPES-

CITY           SKY/WX    TMP DP  RH WIND       PRES   REMARKS
KAILUA KONA    CLOUDY    75  66  73 SE6       29.91F
HILO           LGT RAIN  67  63  87 E7        29.98S
HONOKAA*       NOT AVBL
KAWAIHAE MWT*    N/A     72 N/A N/A E5          N/A
KAWAIHAE*        N/A     72 N/A N/A E3          N/A
SOUTH POINT*     N/A     63 N/A N/A N10         N/A
UPOLU AIRPORT*   N/A    N/A N/A N/A E10         N/A
KAMUELA*       NOT AVBL
HAKALAU*         N/A    N/A N/A N/A SW8         N/A
KALOKO-HONOKO*   N/A     73  66  78 E1G7      29.91F
PALI 2*          N/A     57  52  82 N9G17       N/A
KEALAKOMO*       N/A     72  59  64 N13G20      N/A
KAUPULEHU*       N/A     66  57  72 SE7         N/A
KAPAPALA*        N/A     54  52  92 NW2         N/A
LOWER KAHUKU*    N/A     54  52  94 VRB3G9      N/A
PUHE CS*       NOT AVBL
PUHO CS*         N/A     71  61  71 E3          N/A
PTA KEAMUKU*     N/A     54  50  87 CALM        N/A
WAIKOLOA*        N/A     66  54  63 E13         N/A
$$

HIZ027>028-271300-
BIG ISLAND OF HAWAII INTERIOR AND SUMMMITS-

CITY           SKY/WX    TMP DP  RH WIND       PRES   REMARKS
BRADSHAW FIELD CLOUDY    43  34  71 SE6       30.24F
MK VISITOR CEN NOT AVBL
MAUNA KEA*       N/A     36   0  21 CALM        N/A
MAUNA LOA*       N/A     41  14  33 MISG        N/A
MAUNA LOA 1*   NOT AVBL
PTA KIPUKA*      N/A     48  46  93 SE3G9       N/A
PTA RANGE 17*    N/A     46  36  66 E6          N/A
PTA WEST*        N/A     50  43  76 SE10        N/A
NENE CABIN*      N/A    N/A N/A N/A N5          N/A
AHUMOA*          N/A    N/A N/A N/A N2G9        N/A
PTA PORTABLE*  NOT AVBL
PUU MALI*      NOT AVBL
$$

HIC003-271300-
NORTHWEST ISLANDS-

CITY           SKY/WX    TMP DP  RH WIND       PRES   REMARKS
MIDWAY ISLAND  CLEAR     61  46  59 VRB6      30.18F
MIDWAY NOS*    NOT AVBL
FRENCH FRIGATE NOT AVBL
$$

PHZ110>124-180-271300-
BUOY REPORTS

STATION/POSITION TIME  TEMP    WIND        PRES    WAVE   SWELL
                       AIR SEA DIR/SP/G            HT/PER HT/DIR
                 (UTC) (F)     (DEG/KT/KT) (MB)    (FT/S) (FT/D)
BUOY 51001       NOT AVBL
BUOY 51101       1200   69 72   30/ 12/ 16 1016.2F   6/11   5/320
BUOY 51100       NOT AVBL
BUOY 51003       1200   76 78   80/ 14/ 16 1013.3F   7/12   5
BUOY 51004       1101   75 78   50/ 17/ 21 1012.0F  10/13
BARBERS PT BUOY  NOT AVBL
WAIMEA BAY BUOY  1200      76                N/A     5/12   3/320
KAILUA BAY BUOY  1200      76                N/A     6/ 8   2/350
LANAI BUOY       1200      77                N/A     3/12   2/260
BARBERS PT 2     1200      77                N/A     4/13   2/250
PAUWELA MAUI     1200      76                N/A     7/13
HILO             1200      77                N/A     7/13   3/340
KANEOHE BAY BUOY 1200      75                N/A     5/ 7   2/350
HANALEI KAUAI    NOT AVBL
KAHULUI HARBOR   1200   72 76   20/  8/ 11 1014.3F
HONOLULU HARBOR  1200   69 76  350/  2/  2 1014.5F
KILO NALU        NOT AVBL
HILO HARBOR      1200   67 76  250/ 10/ 10 1014.2F
MOKUOLOE         1200      74              1014.7F
NAWILIWILI       NOT AVBL
WHOTS BUOY       NOT AVBL
BUOY 51028       NOT AVBL
$$

......................KEY........................................
  SKY/WX - SKY CONDITIONS/PRESENT WEATHER
  TMP    - TEMPERATURE IN FAHRENHEIT
  DWPT   - DEWPOINT IN FAHRENHEIT
  RH     - RELATIVE HUMIDITY IN PERCENT
  WIND   - DIRECTION AND SPEED /MPH FOR ISLANDS...KTS FOR BUOYS/
  PRES   - MEAN SEA LEVEL PRESSURE IN INCHES OF HG
  VSB    - VISIBILITY IN MILES
  HX     - HEAT INDEX
  WCI    - WIND CHILL INDEX
  VRB    - VARIABLE WIND DIRECTION
  N/A    - NOT AVAILABLE



USA.gov is the U.S. government's official web portal to all federal, state and local government web resources and services.